Regional Weather Roundup
Issued by NWS Upton, NY

Current Version | Previous Version | Graphics & Text | Print | Product List | Glossary Off
Versions: 1 2 3 4 5 6 7 8 9 10 11 12 13 14 15 16 17 18 19 20 21 22 23 24 25 26 27 28

000
ASUS41 KOKX 211508
RWROKX

REGIONAL WEATHER ROUNDUP
NATIONAL WEATHER SERVICE NEW YORK NY
1100 AM EDT SAT OCT 21 2017

NOTE: "FAIR" INDICATES FEW OR NO CLOUDS BELOW 12,000 FEET WITH NO
SIGNIFICANT WEATHER AND/OR OBSTRUCTIONS TO VISIBILITY.

NYZ071-072-176-178-NJZ106-104-211600-
NEW YORK CITY METRO AREA

CITY           SKY/WX    TMP DP  RH WIND       PRES   REMARKS
Central Park   SUNNY     67  40  37 VRB3      30.36S
Bronx Bot Gard   N/A     72  43  35 SW7       30.34F
LaGuardia APRT MOSUNNY   68  46  45 CALM      30.33S
Kennedy INTL   MOSUNNY   70  43  37 SW5       30.35R
Breezy Point     N/A     63 N/A N/A W5          N/A
Newark/Liberty MOSUNNY   70  38  31 CALM      30.34S
Teterboro      SUNNY     67  43  41 CALM      30.33F
$$

NYZ177-179-078>081-211600-
LONG ISLAND NEW YORK

CITY           SKY/WX    TMP DP  RH WIND       PRES   REMARKS
Jones Beach      N/A     68 N/A N/A NW1         N/A
Matinecock PT    N/A     63 N/A N/A SW6         N/A
Farmingdale    SUNNY     71  41  33 W5        30.34R
MacArthur/ISP  MOSUNNY   72  48  42 CALM      30.33S
Shirley        SUNNY     74  50  42 CALM      30.33S
Mt Sinai Harb    N/A    N/A N/A N/A N1          N/A
Westhampton    SUNNY     70  42  36 CALM      30.35R
East Hampton   FAIR      66  43  42 CALM      30.33S
Montauk          N/A     66  46  48 CALM      30.34S
$$

NYZ052-065-067-211600-
HUDSON VALLEY

CITY           SKY/WX    TMP DP  RH WIND       PRES   REMARKS
White Plains   SUNNY     70  37  29 W6        30.33S
Larchmont Harb   N/A     61 N/A N/A S2          N/A
Croton On Huds   N/A     59 N/A N/A MISG        N/A
Newburgh       SUNNY     66  43  42 W6        30.35S
Montgomery     SUNNY     64  44  48 S5        30.33S
Poughkeepsie   SUNNY     60  42  51 CALM      30.33F
Albany         MOSUNNY   60  40  47 S7        30.33S
$$

NJZ001-105-106-008-010-013-015-019>022-104-211600-
NEW JERSEY

CITY           SKY/WX    TMP DP  RH WIND       PRES   REMARKS
Newark/Liberty MOSUNNY   70  38  31 CALM      30.34S
Teterboro      SUNNY     67  43  41 CALM      30.33F
Caldwell       SUNNY     64  43  46 W3        30.36R
Somerville     SUNNY     65  47  52 CALM      30.35S
Linden         FAIR      69  38  33 CALM      30.35S
Perth Amboy      N/A     64 N/A N/A W5          N/A
Sussex         SUNNY     63  46  54 SW3       30.35S
Andover          N/A     65  43  44 CALM      30.36S
Trenton        SUNNY     68  46  45 VRB3      30.36R
Millville      SUNNY     69  46  43 CALM      30.36S
Atlantic City  SUNNY     69  44  40 CALM      30.36R
Wrightstown    SUNNY     68  45  42 CALM      30.34R
Toms River       N/A     70  44  39 CALM      30.36S
Belmar         SUNNY     69  45  41 CALM      30.37R
$$

PAZ047>061-062-071-211600-
EASTERN PENNSYLVANIA

CITY           SKY/WX    TMP DP  RH WIND       PRES   REMARKS
Philadelphia   MOSUNNY   66  43  43 CALM      30.36F
Allentown      SUNNY     61  44  53 CALM      30.37S
Scranton       SUNNY     57  42  57 NW3       30.37F
$$

CTZ002-004>006-009-010-012-RIZ004-006-007-MAZ004-011-015-211600-
SOUTHERN NEW ENGLAND
 IN CT

CITY           SKY/WX    TMP DP  RH WIND       PRES   REMARKS
Bradley INTL   MOSUNNY   62  42  47 CALM      30.32S
Hartford       SUNNY     63  45  51 SE5       30.32F
Danbury        SUNNY     66  43  43 CALM      30.35S
Wtrbury/Oxford SUNNY     65  43  44 CALM      30.34S
Norwalk Harbor NOT AVBL
Bridgeport     SUNNY     69  43  38 VRB3      30.33S
Meriden        SUNNY     66  41  40 CALM      30.32F
New Haven      SUNNY     69  38  32 N5        30.33S
Chester        FAIR      73  34  23 VRB5      30.33S
Groton         SUNNY     63  49  60 S6        30.32S
Wilimantic     SUNNY     65  44  46 CALM      30.32F

 IN RI

CITY           SKY/WX    TMP DP  RH WIND       PRES   REMARKS
Providence     MOSUNNY   67  46  47 S5        30.32R
Block Island   SUNNY     67  48  50 W6        30.34R
Westerly       SUNNY     65  44  46 VRB5      30.33S
 IN MA

CITY           SKY/WX    TMP DP  RH WIND       PRES   REMARKS
Boston         MOSUNNY   66  43  43 S5        30.29R
Worcester      SUNNY     64  33  31 W9        30.31S
Westfield      SUNNY     62  41  46 S5        30.31F
Provincetown   SUNNY     65  45  48 SW10      30.31R
Nantucket      SUNNY     63  51  65 SW7       30.32R
$$

ANZ330-335-338-340-345-350-353-355-211600-
COASTAL MARINE OBSERVATIONS


STATION/POSITION TIME  SKY/WX   TEMP    WIND        PRES    VSBY  WAVE
                                AIR SEA DIR/SP/G                  HT/PER
                 (UTC)          (F)     (DEG/KT/KT) (MB)    (MI)  (FT/S)
NY HARB ENTRANCE 1350            64 64  340/  4/  4 1026.7          2/ 9
20 S FIRE ISLAND 1350            64 64   30/  6/  6 1027.3          2/ 8
GREAT SOUTH BAY  1415            63 61  320/  2/  4   N/A
15 E BARNEGAT LI NOT AVBL
HUDSON CANYON    1350            64 65   40/  8/  8 1026.4          2/ 8
KINGS POINT      1442            63 65   30/  1/  2 1028.0
EXECUTION ROCKS  1430            69     210/  2/  4   N/A
WESTERN LI SOUND 1349            64     190/  2/  4   N/A           0
CENTRAL LI SOUND 1400            63      10/  6/  8   N/A           1
EASTERN LI SOUND NOT AVBL
ROBBINS REEF     1448            64     290/  3/  5 1028.1
$$


>>>>>>>>>>>>>>>>>>>>>>>>>>>> KEY <<<<<<<<<<<<<<<<<<<<<<<<<<<
>                                                          <
>     SKY/WX - Sky Condition/Present Weather               <
>     TMP    - Temperature in Fahrenheit                   <
>     DP     - Dew Point in Fahrenheit                     <
>     RH     - Relative Humidity in Percent                <
>     WIND   - Direction (from) and Speed in MPH           <
>     PRES   - Mean Sea Level Pressure (inches of Hg)      <
>     WCI    - Wind Chill Index                            <
>     VSB    - VISIBILITY IN MILES                         <
>     HX     - HEAT INDEX                                  <
>     TC     - TEMPERATURE IN CELSIUS                      <
>     VRB    - VARIABLE WIND DIRECTION                     <
>                                                          <
>>>>>>>>>>>>>>>>>>>>>>>>>>>> KEY <<<<<<<<<<<<<<<<<<<<<<<<<<<




USA.gov is the U.S. government's official web portal to all federal, state and local government web resources and services.